Regional Weather Roundup
Issued by NWS

Home | Current Version | Previous Version | Text Only | Print | Product List | Glossary Off
Versions: 1 2 3 4 5 6 7 8 9 10 11 12 13 14 15 16 17 18 19 20 21 22 23 24 25 26 27 28 29 30 31 32 33 34 35 36 37 38 39 40 41 42 43 44 45 46 47 48 49 50

000
ASUS44 KMEG 282300
RWRTN
TENNESSEE HOURLY STATE WEATHER ROUNDUP
NATIONAL WEATHER SERVICE MEMPHIS TN
500 PM CST SAT FEB 28 2015

TNZ002-004-019-021-049-052-054-088>092-010000-
WEST TENNESSEE

CITY           SKY/WX    TMP DP  RH WIND       PRES   REMARKS
MEMPHIS INTL   PTSUNNY   47  19  33 NE8       30.37F
NWS MEMPHIS      N/A     46 N/A N/A MISG        N/A
JACKSON        CLOUDY    46  21  37 E5        30.40F
DYERSBURG      CLOUDY    37  16  41 E6        30.43F WCI  33
UNION CITY     PTCLDY    34  23  64 NE7       30.42F WCI  28
PARIS          CLEAR     37  19  48 E3        30.42F
LEXINGTON      CLEAR     48  19  32 CALM      30.40F
SAVANNAH       CLOUDY    52  25  35 CALM      30.40F
$$

TNZ008-025-027-028-033-062-065-066-010000-
NORTH MIDDLE TENNESSEE

CITY           SKY/WX    TMP DP  RH WIND       PRES   REMARKS
NASHVILLE      MOCLDY    47  25  42 CALM      30.44F
CLARKSVILLE    CLOUDY    36  24  62 NE7       30.45F WCI  30
COOKEVILLE     CLEAR     50  30  46 SE6       30.43S
CROSSVILLE     CLOUDY    45  24  43 VRB3      30.45R
$$

TNZ061-075-076-078-094-096-097-010000-
SOUTH MIDDLE TENNESSEE

CITY           SKY/WX    TMP DP  RH WIND       PRES   REMARKS
FAYETTEVILLE   CLEAR     50  28  43 S5          N/A
TULLAHOMA      CLEAR     50  27  40 SE8       30.43R
WINCHESTER     CLEAR     48  28  46 SE9       30.44R
COLUMBIA         N/A     54  32  43 E3        30.40S
SHELBYVILLE    PTCLDY    54  34  47 E3        30.43R
$$

TNZ017-018-042-046-047-010000-
NORTHEAST TENNESSEE

CITY           SKY/WX    TMP DP  RH WIND       PRES   REMARKS
TRI CITIES     PTCLDY    42  26  53 E5        30.49F
ELIZABETHTON   CLEAR     46  23  39 SE5       30.48F
$$

TNZ012-013-036-069-073-074-010000-
CENTRAL EAST TENNESSEE

CITY           SKY/WX    TMP DP  RH WIND       PRES   REMARKS
KNOXVILLE      NOT AVBL
OAK RIDGE      MOCLDY    47  23  38 VRB3      30.50S
GATLINBURG     CLOUDY    43  25  49 CALM      30.48S
$$

TNZ083-085-099-010000-
SOUTHEAST TENNESSEE

CITY           SKY/WX    TMP DP  RH WIND       PRES   REMARKS
CHATTANOOGA    MOCLDY    52  27  38 SE3       30.46F
$$

SKY/WX REPORTED AS FAIR MEANS FEW OR NO CLOUDS BELOW
12 THOUSAND FEET.




USA.gov is the U.S. government's official web portal to all federal, state and local government web resources and services.